Juneau, WI

1:36 AM CDT on May 22, 2018 (GMT -0500)
Dodge County

Weather History for KUNU - March, 2012

Change the Weather History Date:

Monday, March 26, 2012

  Actual Average Record
Temperature  
Mean Temperature 38 °F -  
Max Temperature 44 °F 45 °F 78 °F (2007)
Min Temperature 32 °F 30 °F 9 °F (1979)
Degree Days  
Heating Degree Days 27    
Moisture  
Dew Point 22 °F    
Average Humidity 55    
Maximum Humidity 75    
Minimum Humidity 37    
Precipitation  
Precipitation 0.00 in - - ()
Sea Level Pressure  
Sea Level Pressure 30.36 in    
Wind  
Wind Speed 12 mph (ENE)    
Max Wind Speed 16 mph    
Max Gust Speed 22 mph    
Visibility 10 miles    
Events      
Averages and records for this station are not official NWS values.
T = Trace of Precipitation, MM = Missing Value Source: NWS Daily Summary

Daily Weather History Graph

Daily Weather History Graph

Search for Another Location

Airport or City:

Astronomy

Mar. 26, 2012 Rise Set
Actual Time 6:46 AM CDT 7:14 PM CDT
Civil Twilight 6:17 AM CDT 7:43 PM CDT
Nautical Twilight 5:43 AM CDT 8:17 PM CDT
Astronomical Twilight 5:09 AM CDT 8:52 PM CDT
Moon 8:27 AM CDT (3/26) 11:33 PM CDT (3/26)
Length of Visible Light 13h 25m
Length of Day
12h 28m
Waxing Crescent, 15% of the Moon is Illuminated
Mar 26
Waxing Crescent
Mar 30
First Quarter
Apr 6
Full
Apr 13
Last Quarter
Apr 21
New

Hourly Weather History & Observations

Time (CDT) Temp. Windchill Dew Point Humidity Pressure Visibility Wind Dir Wind Speed Gust Speed Precip Events Conditions
12:15 AM 35.6 °F 26.6 °F 21.2 °F 56% 30.25 in 10.0 mi ENE 13.8 mph 19.6 mph N/A   Mostly Cloudy
12:55 AM 35.6 °F 27.1 °F 21.2 °F 56% 30.27 in 10.0 mi NE 12.7 mph - N/A   Overcast
1:15 AM 35.6 °F 27.5 °F 21.2 °F 56% 30.28 in 10.0 mi NE 11.5 mph 20.7 mph N/A   Overcast
1:35 AM 35.6 °F 28.0 °F 19.4 °F 52% 30.29 in 10.0 mi NNE 10.4 mph 20.7 mph N/A   Overcast
1:55 AM 35.6 °F 27.1 °F 19.4 °F 52% 30.29 in 10.0 mi NNE 12.7 mph 20.7 mph N/A   Overcast
2:15 AM 33.8 °F 25.3 °F 17.6 °F 52% 30.30 in 10.0 mi NE 11.5 mph 18.4 mph N/A   Overcast
2:35 AM 33.8 °F 25.3 °F 17.6 °F 52% 30.30 in 10.0 mi NE 11.5 mph 17.3 mph N/A   Overcast
2:55 AM 33.8 °F 24.3 °F 15.8 °F 48% 30.32 in 10.0 mi NE 13.8 mph 17.3 mph N/A   Overcast
3:35 AM 32.0 °F 23.6 °F 24.8 °F 75% 30.34 in 10.0 mi NNE 10.4 mph 17.3 mph N/A   Overcast
3:55 AM 32.0 °F 23.6 °F 24.8 °F 75% 30.35 in 10.0 mi NNE 10.4 mph 16.1 mph N/A   Overcast
4:15 AM 32.0 °F 23.0 °F 23.0 °F 69% 30.35 in 10.0 mi NNE 11.5 mph 16.1 mph N/A   Overcast
4:35 AM 32.0 °F 23.0 °F 23.0 °F 69% 30.36 in 10.0 mi NNE 11.5 mph - N/A   Overcast
4:55 AM 32.0 °F 22.1 °F 23.0 °F 69% 30.36 in 10.0 mi NNE 13.8 mph - N/A   Overcast
5:15 AM 32.0 °F 23.0 °F 23.0 °F 69% 30.37 in 10.0 mi NE 11.5 mph 17.3 mph N/A   Overcast
5:35 AM 32.0 °F 23.0 °F 23.0 °F 69% 30.38 in 10.0 mi NE 11.5 mph 17.3 mph N/A   Overcast
5:55 AM 32.0 °F 23.6 °F 23.0 °F 69% 30.39 in 10.0 mi NE 10.4 mph 19.6 mph N/A   Overcast
6:15 AM 32.0 °F 22.1 °F 23.0 °F 69% 30.38 in 10.0 mi NE 13.8 mph 20.7 mph N/A   Overcast
6:35 AM 32.0 °F 23.6 °F 23.0 °F 69% 30.39 in 10.0 mi NE 10.4 mph 20.7 mph N/A   Overcast
6:55 AM 32.0 °F 24.2 °F 23.0 °F 69% 30.39 in 10.0 mi NE 9.2 mph 17.3 mph N/A   Overcast
7:15 AM 32.0 °F 23.6 °F 23.0 °F 69% 30.40 in 10.0 mi NE 10.4 mph 17.3 mph N/A   Overcast
7:35 AM 32.0 °F 24.8 °F 23.0 °F 69% 30.41 in 10.0 mi NE 8.1 mph - N/A   Overcast
7:55 AM 32.0 °F 22.1 °F 23.0 °F 69% 30.40 in 10.0 mi NE 13.8 mph - N/A   Scattered Clouds
8:15 AM 32.0 °F 22.5 °F 23.0 °F 69% 30.41 in 10.0 mi NE 12.7 mph 18.4 mph N/A   Scattered Clouds
8:35 AM 32.0 °F 22.5 °F 23.0 °F 69% 30.41 in 10.0 mi NE 12.7 mph - N/A   Mostly Cloudy
8:55 AM 33.8 °F 23.5 °F 23.0 °F 65% 30.41 in 10.0 mi ENE 16.1 mph 21.9 mph N/A   Overcast
9:15 AM 33.8 °F 23.9 °F 23.0 °F 65% 30.40 in 10.0 mi ENE 15.0 mph 21.9 mph N/A   Mostly Cloudy
9:35 AM 35.6 °F 26.2 °F 23.0 °F 60% 30.41 in 10.0 mi ENE 15.0 mph - N/A   Clear
9:55 AM 35.6 °F 27.5 °F 24.8 °F 65% 30.43 in 10.0 mi ENE 11.5 mph - N/A   Clear
10:15 AM 37.4 °F 30.3 °F 24.8 °F 60% 30.42 in 10.0 mi ENE 10.4 mph - N/A   Scattered Clouds
10:35 AM 37.4 °F 28.5 °F 23.0 °F 56% 30.42 in 10.0 mi East 15.0 mph - N/A   Clear
10:55 AM 39.2 °F 30.8 °F 21.2 °F 49% 30.42 in 10.0 mi ENE 15.0 mph 19.6 mph N/A   Clear
11:15 AM 41.0 °F 33.9 °F 23.0 °F 49% 30.42 in 10.0 mi East 12.7 mph - N/A   Clear
11:35 AM 41.0 °F 33.1 °F 23.0 °F 49% 30.42 in 10.0 mi East 15.0 mph 19.6 mph N/A   Clear
11:55 AM 41.0 °F 33.9 °F 23.0 °F 49% 30.42 in 10.0 mi East 12.7 mph 18.4 mph N/A   Clear
12:15 PM 42.8 °F 36.2 °F 21.2 °F 42% 30.41 in 10.0 mi East 12.7 mph 18.4 mph N/A   Clear
12:35 PM 42.8 °F 36.2 °F 21.2 °F 42% 30.41 in 10.0 mi East 12.7 mph 20.7 mph N/A   Clear
12:55 PM 42.8 °F 35.4 °F 21.2 °F 42% 30.40 in 10.0 mi East 15.0 mph - N/A   Clear
1:15 PM 42.8 °F 37.0 °F 23.0 °F 46% 30.40 in 10.0 mi East 10.4 mph 20.7 mph N/A   Scattered Clouds
1:35 PM 42.8 °F 35.1 °F 19.4 °F 39% 30.39 in 10.0 mi ENE 16.1 mph 20.7 mph N/A   Mostly Cloudy
1:55 PM 42.8 °F 37.5 °F 19.4 °F 39% 30.39 in 10.0 mi East 9.2 mph - N/A   Mostly Cloudy
2:15 PM 42.8 °F 36.6 °F 21.2 °F 42% 30.38 in 10.0 mi East 11.5 mph 16.1 mph N/A   Scattered Clouds
2:35 PM 44.6 °F 38.1 °F 19.4 °F 37% 30.38 in 10.0 mi East 13.8 mph 17.3 mph N/A   Clear
2:55 PM 42.8 °F 35.8 °F 19.4 °F 39% 30.37 in 10.0 mi East 13.8 mph 18.4 mph N/A   Clear
3:15 PM 42.8 °F 35.8 °F 19.4 °F 39% 30.36 in 10.0 mi East 13.8 mph - N/A   Scattered Clouds
3:35 PM 42.8 °F 35.8 °F 19.4 °F 39% 30.36 in 10.0 mi East 13.8 mph 17.3 mph N/A   Scattered Clouds
3:55 PM 42.8 °F 36.2 °F 19.4 °F 39% 30.35 in 10.0 mi East 12.7 mph - N/A   Scattered Clouds
4:15 PM 42.8 °F 35.8 °F 19.4 °F 39% 30.33 in 10.0 mi East 13.8 mph 18.4 mph N/A   Mostly Cloudy
4:35 PM 41.0 °F 33.1 °F 19.4 °F 42% 30.32 in 10.0 mi East 15.0 mph - N/A   Scattered Clouds
4:55 PM 41.0 °F 33.9 °F 21.2 °F 45% 30.33 in 10.0 mi East 12.7 mph - N/A   Scattered Clouds
5:35 PM 41.0 °F 35.2 °F 21.2 °F 45% 30.33 in 10.0 mi East 9.2 mph - N/A   Mostly Cloudy
5:55 PM 39.2 °F 31.2 °F 17.6 °F 42% 30.32 in 10.0 mi East 13.8 mph - N/A   Mostly Cloudy
6:15 PM 37.4 °F 29.3 °F 19.4 °F 48% 30.31 in 10.0 mi ESE 12.7 mph - N/A   Overcast
6:35 PM 37.4 °F 29.3 °F 19.4 °F 48% 30.31 in 10.0 mi East 12.7 mph 19.6 mph N/A   Overcast
6:55 PM 37.4 °F 30.3 °F 19.4 °F 48% 30.31 in 10.0 mi ESE 10.4 mph - N/A   Overcast
7:15 PM 37.4 °F 30.8 °F 21.2 °F 52% 30.31 in 10.0 mi ESE 9.2 mph - N/A   Overcast
7:35 PM 37.4 °F 30.3 °F 19.4 °F 48% 30.31 in 10.0 mi East 10.4 mph - N/A   Overcast
7:55 PM 37.4 °F 30.3 °F 23.0 °F 56% 30.32 in 10.0 mi East 10.4 mph - N/A   Overcast
8:15 PM 37.4 °F 30.8 °F 23.0 °F 56% 30.32 in 10.0 mi East 9.2 mph - N/A   Overcast
8:35 PM 35.6 °F 28.0 °F 23.0 °F 60% 30.32 in 10.0 mi ESE 10.4 mph - N/A   Overcast
8:55 PM 35.6 °F 27.5 °F 23.0 °F 60% 30.31 in 10.0 mi ESE 11.5 mph - N/A   Overcast
9:15 PM 35.6 °F 26.2 °F 23.0 °F 60% 30.30 in 10.0 mi East 15.0 mph - N/A   Overcast
9:35 PM 35.6 °F 27.5 °F 24.8 °F 65% 30.30 in 10.0 mi ESE 11.5 mph - N/A   Overcast
9:55 PM 35.6 °F 25.9 °F 24.8 °F 65% 30.28 in 10.0 mi East 16.1 mph - N/A   Overcast
10:15 PM 35.6 °F 26.2 °F 26.6 °F 70% 30.26 in 10.0 mi East 15.0 mph - N/A   Overcast
10:55 PM 35.6 °F 25.2 °F 26.6 °F 70% 30.21 in 10.0 mi East 18.4 mph 23.0 mph N/A   Overcast
11:15 PM 35.6 °F 25.9 °F 26.6 °F 70% 30.21 in 10.0 mi ESE 16.1 mph 21.9 mph N/A   Mostly Cloudy
11:35 PM 35.6 °F 26.2 °F 26.6 °F 70% 30.22 in 10.0 mi ESE 15.0 mph 21.9 mph N/A   Scattered Clouds
11:55 PM 37.4 °F 29.3 °F 26.6 °F 65% 30.21 in 10.0 mi East 12.7 mph 18.4 mph N/A   Scattered Clouds